Date String (YYYY-MM-DD hh:mm:ss) UTC,Instrument flags,Ambient pressure (hPa),Sample flow (lpm),Bypass flow (lpm),Sample temperature (°C),Ambient temperature (°C),ASC tube jacket temperature (°C),LED temperature (°C),Box temperature (°C),Sample RH (%),Span deviation,Mass concentration (μg/m³),Mass concentration (μg/m³),Mass concentration (μg/m³)
DateTimeUTC,F1_M11,P_M11,Q1_M11,Q2_M11,T1_M11,T2_M11,T3_M11,T4_M11,T5_M11,U1_M11,ZSPAN_M11,X0_M11,X2_M11,X1_M11
2021-09-21 03:00:00,,0835.5,5.00,0.00,29.9,29.3,00.0,38.8,31.7,19.3,0000.0,0009.62,0003.33,0002.11
2021-09-21 03:01:00,,0835.5,4.99,0.00,29.9,29.3,00.0,38.9,31.7,19.4,0000.0,0009.49,0003.32,0002.13
2021-09-21 03:02:00,,0835.6,5.00,0.00,29.9,29.3,00.0,38.9,31.7,19.5,0000.0,0009.82,0003.35,0002.16
2021-09-21 03:03:00,,0835.6,5.01,0.00,29.9,29.3,00.0,38.9,31.7,19.6,0000.0,0011.15,0003.41,0002.17
2021-09-21 03:04:00,,0835.7,4.99,0.00,29.9,29.3,00.0,38.9,31.7,19.7,0000.0,0011.99,0003.43,0002.20
2021-09-21 03:05:00,,0835.7,4.99,0.00,29.9,29.3,00.0,38.9,31.8,19.6,0000.0,0012.61,0003.45,0002.22
2021-09-21 03:06:00,,0835.8,5.01,0.00,29.9,29.3,00.0,38.9,31.8,19.5,0000.0,0012.70,0003.48,0002.24
2021-09-21 03:07:00,,0835.7,5.00,0.00,30.0,29.3,00.0,38.9,31.8,19.6,0000.0,0012.85,0003.49,0002.27
2021-09-21 03:08:00,,0835.7,5.00,0.00,30.0,29.3,00.0,39.0,31.7,19.6,0000.0,0013.46,0003.48,0002.29
2021-09-21 03:09:00,,0835.6,4.99,0.00,30.0,29.3,00.0,39.0,31.8,19.4,0000.0,0013.76,0003.49,0002.32
2021-09-21 03:10:00,,0835.6,5.01,0.00,30.0,29.3,00.0,39.0,31.8,19.2,0000.0,0012.98,0003.49,0002.33
2021-09-21 03:11:00,,0835.6,5.00,0.00,30.0,29.3,00.0,39.0,31.8,19.2,0000.0,0012.79,0003.44,0002.34
2021-09-21 03:12:00,,0835.6,4.98,0.00,30.0,29.3,00.0,39.0,31.8,19.3,0000.0,0013.45,0003.45,0002.34
2021-09-21 03:13:00,,0835.6,5.01,0.00,30.0,29.3,00.0,39.0,31.9,19.3,0000.0,0012.72,0003.39,0002.33
2021-09-21 03:14:00,,0835.7,4.99,0.00,30.0,29.3,00.0,39.0,31.9,19.6,0000.0,0011.44,0003.33,0002.33
2021-09-21 03:15:00,,0835.7,5.00,0.00,30.0,29.3,00.0,39.0,31.8,19.6,0000.0,0011.00,0003.31,0002.35
2021-09-21 03:16:00,,0835.8,5.01,0.00,30.1,29.4,00.0,39.1,31.9,19.5,0000.0,0010.69,0003.26,0002.36
2021-09-21 03:17:00,,0835.8,5.00,0.00,30.1,29.4,00.0,39.1,31.9,19.4,0000.0,0010.85,0003.24,0002.36
2021-09-21 03:18:00,,0835.8,4.99,0.00,30.1,29.4,00.0,39.1,31.9,19.2,0000.0,0011.44,0003.27,0002.35
2021-09-21 03:19:00,,0835.8,5.01,0.00,30.1,29.4,00.0,39.1,31.9,19.0,0000.0,0010.73,0003.26,0002.35
2021-09-21 03:20:00,,0835.8,4.99,0.00,30.1,29.4,00.0,39.1,31.9,19.3,0000.0,0011.00,0003.23,0002.33
2021-09-21 03:21:00,,0835.8,5.01,0.00,30.1,29.4,00.0,39.1,31.9,19.5,0000.0,0011.40,0003.20,0002.32
2021-09-21 03:22:00,,0835.8,5.01,0.00,30.1,29.4,00.0,39.1,31.9,19.3,0000.0,0011.36,0003.20,0002.30
2021-09-21 03:23:00,,0835.8,5.00,0.00,30.2,29.4,00.0,39.1,31.9,19.4,0000.0,0010.64,0003.19,0002.30
2021-09-21 03:24:00,,0835.8,4.99,0.00,30.2,29.4,00.0,39.2,32.0,19.4,0000.0,0011.79,0003.21,0002.30
2021-09-21 03:25:00,,0835.8,5.00,0.00,30.2,29.4,00.0,39.2,32.0,19.3,0000.0,0011.73,0003.24,0002.30
2021-09-21 03:26:00,,0835.9,5.01,0.00,30.2,29.4,00.0,39.2,32.0,19.1,0000.0,0011.15,0003.21,0002.27
2021-09-21 03:27:00,,0835.9,5.00,0.00,30.2,29.4,00.0,39.2,32.0,19.1,0000.0,0010.39,0003.19,0002.25
2021-09-21 03:28:00,,0835.9,5.00,0.00,30.2,29.4,00.0,39.2,31.9,19.3,0000.0,0010.13,0003.17,0002.23
2021-09-21 03:29:00,,0835.9,5.01,0.00,30.2,29.5,00.0,39.2,32.0,19.5,0000.0,0009.95,0003.17,0002.23
2021-09-21 03:30:00,,0835.9,4.99,0.00,30.2,29.5,00.0,39.2,32.0,19.5,0000.0,0009.76,0003.13,0002.23
2021-09-21 03:31:00,,0835.9,4.99,0.00,30.2,29.5,00.0,39.2,32.0,19.4,0000.0,0009.22,0003.12,0002.23
2021-09-21 03:32:00,,0835.9,5.00,0.00,30.2,29.5,00.0,39.2,32.0,19.4,0000.0,0008.65,0003.11,0002.22
2021-09-21 03:33:00,,0835.8,5.01,0.00,30.2,29.5,00.0,39.2,32.0,19.3,0000.0,0008.41,0003.13,0002.23
2021-09-21 03:34:00,,0835.9,5.00,0.00,30.2,29.5,00.0,39.3,32.0,19.2,0000.0,0008.64,0003.13,0002.23
2021-09-21 03:35:00,,0835.8,4.99,0.00,30.3,29.5,00.0,39.3,32.0,19.2,0000.0,0008.08,0003.12,0002.24
2021-09-21 03:36:00,,0835.9,5.00,0.00,30.3,29.5,00.0,39.3,32.0,19.5,0000.0,0007.85,0003.09,0002.24
2021-09-21 03:37:00,,0835.9,5.00,0.00,30.3,29.5,00.0,39.3,32.0,19.2,0000.0,0008.32,0003.12,0002.25
2021-09-21 03:38:00,,0835.9,5.01,0.00,30.3,29.5,00.0,39.3,32.0,19.1,0000.0,0008.94,0003.18,0002.27
2021-09-21 03:39:00,,0836.0,4.99,0.00,30.3,29.5,00.0,39.3,32.0,19.1,0000.0,0009.04,0003.22,0002.28
2021-09-21 03:40:00,,0836.0,5.00,0.00,30.3,29.5,00.0,39.3,32.1,19.2,0000.0,0008.84,0003.19,0002.27
2021-09-21 03:41:00,,0836.0,5.00,0.00,30.3,29.5,00.0,39.3,32.1,19.1,0000.0,0009.51,0003.23,0002.28
2021-09-21 03:42:00,,0836.0,4.99,0.00,30.3,29.5,00.0,39.3,32.0,19.0,0000.0,0009.25,0003.25,0002.28
2021-09-21 03:43:00,,0836.0,5.00,0.00,30.3,29.5,00.0,39.3,32.0,19.0,0000.0,0009.36,0003.27,0002.28
2021-09-21 03:44:00,,0835.9,4.99,0.00,30.3,29.5,00.0,39.3,32.0,19.0,0000.0,0009.55,0003.29,0002.28
2021-09-21 03:45:00,,0835.9,4.99,0.00,30.3,29.5,00.0,39.4,32.1,18.9,0000.0,0009.67,0003.30,0002.29
2021-09-21 03:46:00,,0835.9,5.01,0.00,30.3,29.5,00.0,39.4,32.1,18.8,0000.0,0010.04,0003.32,0002.29
2021-09-21 03:47:00,,0835.9,4.99,0.00,30.3,29.5,00.0,39.4,32.1,18.8,0000.0,0009.83,0003.32,0002.29
2021-09-21 03:48:00,,0835.9,5.00,0.00,30.4,29.5,00.0,39.4,32.1,18.7,0000.0,0009.58,0003.30,0002.27
2021-09-21 03:49:00,,0835.9,5.00,0.00,30.4,29.6,00.0,39.4,32.1,18.8,0000.0,0009.13,0003.27,0002.26
2021-09-21 03:50:00,,0835.9,4.99,0.00,30.4,29.6,00.0,39.4,32.1,18.7,0000.0,0009.34,0003.27,0002.25
2021-09-21 03:51:00,,0835.9,5.01,0.00,30.4,29.6,00.0,39.4,32.1,19.0,0000.0,0009.47,0003.28,0002.23
2021-09-21 03:52:00,,0835.9,5.00,0.00,30.4,29.6,00.0,39.4,32.1,18.9,0000.0,0009.03,0003.27,0002.22
2021-09-21 03:53:00,,0835.9,5.00,0.00,30.4,29.6,00.0,39.4,32.1,18.9,0000.0,0009.37,0003.26,0002.22
2021-09-21 03:54:00,,0835.9,5.01,0.00,30.4,29.6,00.0,39.4,32.1,19.0,0000.0,0009.94,0003.28,0002.23
2021-09-21 03:55:00,,0835.9,5.00,0.00,30.4,29.6,00.0,39.4,32.1,18.9,0000.0,0011.29,0003.28,0002.23
2021-09-21 03:56:00,,0836.0,5.00,0.00,30.4,29.6,00.0,39.5,32.1,18.9,0000.0,0011.21,0003.30,0002.24
2021-09-21 03:57:00,,0836.1,4.99,0.00,30.4,29.6,00.0,39.5,32.1,18.8,0000.0,0010.93,0003.27,0002.23
2021-09-21 03:58:00,,0836.2,5.01,0.00,30.4,29.6,00.0,39.5,32.1,18.7,0000.0,0010.64,0003.24,0002.22
2021-09-21 03:59:00,,0836.2,5.00,0.00,30.4,29.6,00.0,39.5,32.2,18.7,0000.0,0010.55,0003.26,0002.24
